Queensbury, NY

7:05 AM EST on February 22, 2017 (GMT -0500)
Bennett Memorial

Weather History for KGFL - January, 2013

Change the Weather History Date:

Friday, January 11, 2013

  Actual Average Record
Temperature  
Mean Temperature 24 °F 18 °F  
Max Temperature 34 °F 28 °F 54 °F (1980)
Min Temperature 14 °F 8 °F -33 °F (1968)
Degree Days  
Heating Degree Days 41 47  
Month to date heating degree days 506 511  
Since 1 July heating degree days 3097 3449  
Cooling Degree Days 0 0  
Month to date cooling degree days 0 0  
Year to date cooling degree days 0 0  
Moisture  
Dew Point 25 °F    
Average Humidity 78    
Maximum Humidity 92    
Minimum Humidity 64    
Precipitation  
Precipitation 0.10 in 0.10 in 1.18 in (2008)
Month to date precipitation 0.10 0.99  
Year to date precipitation 0.10 0.99  
Sea Level Pressure  
Sea Level Pressure 30.28 in    
Wind  
Wind Speed 1 mph (SE)    
Max Wind Speed 6 mph    
Max Gust Speed 8 mph    
Visibility 6 miles    
Events Rain    
T = Trace of Precipitation, MM = Missing Value Source: NWS Daily Summary

Daily Weather History Graph

Daily Weather History Graph

Search for Another Location

Airport or City:

Trip Planner

Search our weather history database for the weather conditions in past years. The results will help you decide how hot, cold, wet, or windy it might be!

Date:

Astronomy

Jan. 11, 2013 Rise Set
Actual Time 7:25 AM EST 4:39 PM EST
Civil Twilight 6:53 AM EST 5:11 PM EST
Nautical Twilight 6:18 AM EST 5:47 PM EST
Astronomical Twilight 5:43 AM EST 6:21 PM EST
Moon 6:55 AM EST (1/11) 4:56 PM EST (1/11)
Length of Visible Light 10h 18m
Length of Day
9h 14m
Waning Crescent, 0% of the Moon is Illuminated
Jan 11
Waning Crescent
Jan 11
New
Jan 18
First Quarter
Jan 26
Full
Feb 3
Last Quarter

Hourly Weather History & Observations

Time (EST) Temp. Windchill Dew Point Humidity Pressure Visibility Wind Dir Wind Speed Gust Speed Precip Events Conditions
12:53 AM 16.0 °F - 12.0 °F 84% 30.56 in 10.0 mi Calm Calm - N/A   Clear
1:53 AM 16.0 °F - 12.9 °F 88% 30.54 in 10.0 mi Calm Calm - N/A   Clear
2:53 AM 15.1 °F - 14.0 °F 95% 30.52 in 10.0 mi Calm Calm - N/A   Clear
3:53 AM 17.1 °F - 14.0 °F 88% 30.50 in 10.0 mi Calm Calm - N/A   Clear
4:53 AM 18.0 °F - 16.0 °F 92% 30.49 in 10.0 mi Calm Calm - N/A   Clear
5:53 AM 17.1 °F - 16.0 °F 96% 30.49 in 10.0 mi Calm Calm - N/A   Clear
6:53 AM 19.4 °F - 17.6 °F 93% 30.45 in 10.0 mi Calm Calm - N/A   Clear
7:53 AM 21.0 °F - 19.0 °F 92% 30.48 in 10.0 mi Calm Calm - N/A   Clear
8:53 AM 24.1 °F - 21.0 °F 88% 30.45 in 10.0 mi Calm Calm - N/A   Clear
9:53 AM 26.1 °F - 23.0 °F 88% 30.42 in 9.0 mi Calm Calm - N/A   Clear
10:53 AM 28.9 °F - 24.1 °F 82% 30.41 in 10.0 mi Calm Calm - N/A   Scattered Clouds
11:53 AM 30.0 °F - 24.1 °F 79% 30.36 in 10.0 mi Calm Calm - N/A   Mostly Cloudy
12:53 PM 32.0 °F - 24.1 °F 73% 30.32 in 10.0 mi Calm Calm - N/A   Mostly Cloudy
1:53 PM 33.1 °F 28.7 °F 24.1 °F 70% 30.28 in 10.0 mi SE 4.6 mph - N/A   Overcast
2:53 PM 33.8 °F 30.8 °F 23.0 °F 65% 30.25 in 9.0 mi SW 3.5 mph - N/A Rain Light Rain
3:27 PM 33.8 °F - 28.4 °F 81% 30.24 in 2.5 mi Calm Calm - 0.03 in Rain Light Rain
3:34 PM 33.8 °F - 28.4 °F 81% 30.24 in 7.0 mi Calm Calm - 0.04 in Rain Light Rain
3:53 PM 32.0 °F 28.7 °F 28.0 °F 85% 30.27 in 3.0 mi SE 3.5 mph - 0.05 in   Overcast
4:02 PM 32.0 °F 28.7 °F 28.4 °F 87% 30.23 in 2.5 mi SE 3.5 mph - 0.02 in   Overcast
4:10 PM 30.2 °F 26.7 °F 28.4 °F 93% 30.22 in 3.0 mi ESE 3.5 mph - 0.03 in   Overcast
4:41 PM 30.2 °F - 28.4 °F 93% 30.21 in 8.0 mi Calm Calm - 0.04 in   Overcast
4:53 PM 30.9 °F - 28.9 °F 92% 30.23 in 7.0 mi Calm Calm - 0.04 in   Overcast
5:53 PM 32.0 °F - 30.0 °F 92% 30.22 in 5.0 mi Calm Calm - 0.00 in   Overcast
6:53 PM 32.0 °F - 30.0 °F 92% 30.19 in 6.0 mi Calm Calm - 0.01 in   Overcast
7:16 PM 32.0 °F - 30.2 °F 93% 30.15 in 2.5 mi Calm Calm - N/A   Overcast
7:53 PM 32.0 °F - 30.0 °F 92% 30.17 in 3.0 mi Calm Calm - 0.00 in   Overcast
8:08 PM 32.0 °F - 30.2 °F 93% 30.13 in 2.0 mi Calm Calm - 0.00 in   Overcast
8:25 PM 32.0 °F - 30.2 °F 93% 30.13 in 3.0 mi Calm Calm - 0.00 in   Overcast
8:53 PM 32.0 °F - 30.9 °F 96% 30.17 in 2.5 mi Calm Calm - 0.00 in   Overcast
9:05 PM 32.0 °F - 30.2 °F 93% 30.14 in 2.5 mi Calm Calm - N/A   Overcast
9:33 PM 32.0 °F 28.7 °F 30.2 °F 93% 30.15 in 2.0 mi ESE 3.5 mph - N/A   Overcast
9:42 PM 32.0 °F - 30.2 °F 93% 30.15 in 1.8 mi Calm Calm - N/A   Overcast
9:49 PM 32.0 °F 27.5 °F 30.2 °F 93% 30.14 in 2.0 mi ESE 4.6 mph - N/A   Overcast
9:53 PM 32.0 °F 26.4 °F 30.9 °F 96% 30.17 in 2.0 mi ESE 5.8 mph - N/A   Overcast
10:53 PM 32.0 °F - 30.9 °F 96% 30.15 in 2.0 mi Calm Calm - 0.00 in   Overcast
11:13 PM 32.0 °F - 32.0 °F 100% 30.13 in 1.2 mi Calm Calm - N/A   Overcast
11:53 PM 32.0 °F - 30.9 °F 96% 30.15 in 1.5 mi Calm Calm - 0.00 in   Overcast